KM8V-8 Weather Reports


time (UTC)temp
C
wind
direction
speed
KPH
gust
KPH
rain 1hr
cm
rain 24hr
cm
rain mn
cm
humidity
%
barometer
mb
20260503224517 16 231 8.0 17.7 0.00 0.00 0.00 41 1010.6
20260503224017 16 231 9.7 19.3 0.00 0.00 0.00 41 1010.6
20260503223517 15 219 8.0 17.7 0.00 0.00 0.00 42 1010.7
20260503223017 15 222 8.0 17.7 0.00 0.00 0.00 42 1010.8
20260503222517 15 220 9.7 24.1 0.00 0.00 0.00 42 1010.9
20260503222017 15 221 9.7 19.3 0.00 0.00 0.00 42 1010.9
20260503221517 15 227 8.0 14.5 0.00 0.00 0.00 43 1010.8
20260503221020 15 224 8.0 19.3 0.00 0.00 0.00 42 1010.9
20260503220517 15 232 11.3 17.7 0.00 0.00 0.00 42 1010.9
20260503220017 15 234 11.3 19.3 0.00 0.00 0.00 43 1010.9
20260503215517 15 219 9.7 19.3 0.00 0.00 0.00 43 1010.9
20260503215019 15 217 12.9 27.4 0.00 0.00 0.00 43 1010.9
20260503214518 15 229 11.3 22.5 0.00 0.00 0.00 43 1010.9
20260503214018 15 226 9.7 20.9 0.00 0.00 0.00 43 1010.9
20260503213518 15 231 9.7 25.7 0.00 0.00 0.00 43 1011.0
20260503213018 15 240 9.7 20.9 0.00 0.00 0.00 43 1010.9
20260503212518 15 227 8.0 24.1 0.00 0.00 0.00 43 1010.9
20260503212018 15 218 11.3 25.7 0.00 0.00 0.00 43 1010.9
20260503211515 15 214 11.3 27.4 0.00 0.00 0.00 43 1011.0
20260503211019 15 222 9.7 19.3 0.00 0.00 0.00 43 1010.9
20260503210518 15 238 8.0 14.5 0.00 0.00 0.00 43 1010.9
20260503210019 15 238 8.0 17.7 0.00 0.00 0.00 43 1011.0
20260503205519 15 225 11.3 22.5 0.00 0.00 0.00 42 1010.9
20260503205017 15 229 9.7 22.5 0.00 0.00 0.00 43 1010.9
20260503204519 15 245 9.7 17.7 0.00 0.00 0.00 42 1010.9
20260503204019 15 226 12.9 24.1 0.00 0.00 0.00 42 1011.1
20260503203517 15 215 11.3 20.9 0.00 0.00 0.00 42 1011.0
20260503203016 16 211 11.3 19.3 0.00 0.00 0.00 42 1011.0
20260503202516 16 220 12.9 29.0 0.00 0.00 0.00 41 1011.1
20260503202016 16 214 11.3 25.7 0.00 0.00 0.00 41 1011.1
20260503201516 15 233 9.7 19.3 0.00 0.00 0.00 42 1011.2
20260503201020 15 222 12.9 20.9 0.00 0.00 0.00 42 1011.2
20260503200520 15 225 11.3 30.6 0.00 0.00 0.00 41 1011.3
20260503200018 15 218 11.3 24.1 0.00 0.00 0.00 42 1011.4
20260503195517 15 219 9.7 19.3 0.00 0.00 0.00 42 1011.5
20260503195018 15 217 14.5 25.7 0.00 0.00 0.00 42 1011.6
20260503194517 15 245 8.0 16.1 0.00 0.00 0.00 42 1011.7
20260503194017 15 232 9.7 19.3 0.00 0.00 0.00 42 1011.8
20260503193517 15 237 9.7 19.3 0.00 0.00 0.00 42 1011.9
20260503193021 15 234 9.7 16.1 0.00 0.00 0.00 42 1011.9
20260503192518 15 225 11.3 27.4 0.00 0.00 0.00 42 1012.0
20260503192018 15 214 11.3 24.1 0.00 0.00 0.00 43 1012.0
20260503191517 15 238 8.0 19.3 0.00 0.00 0.00 42 1012.1
20260503191017 15 220 9.7 30.6 0.00 0.00 0.00 42 1012.1
20260503190518 15 246 12.9 27.4 0.00 0.00 0.00 42 1012.2
20260503190017 15 227 9.7 20.9 0.00 0.00 0.00 43 1012.3
20260503185518 15 232 14.5 24.1 0.00 0.00 0.00 42 1012.3
20260503185018 15 230 12.9 24.1 0.00 0.00 0.00 43 1012.3
20260503184518 15 218 9.7 19.3 0.00 0.00 0.00 44 1012.4
20260503184022 15 241 8.0 16.1 0.00 0.00 0.00 43 1012.4
20260503183518 15 247 9.7 19.3 0.00 0.00 0.00 42 1012.6
20260503183018 15 229 9.7 19.3 0.00 0.00 0.00 44 1012.6
20260503182518 15 231 8.0 17.7 0.00 0.00 0.00 45 1012.7
20260503182018 15 225 11.3 17.7 0.00 0.00 0.00 44 1012.7
20260503181515 15 227 12.9 24.1 0.00 0.00 0.00 44 1012.8
20260503181019 15 224 12.9 25.7 0.00 0.00 0.00 44 1012.8
20260503180520 15 213 11.3 22.5 0.00 0.00 0.00 44 1012.9
20260503180024 15 242 9.7 24.1 0.00 0.00 0.00 43 1012.9
20260503175519 15 263 11.3 24.1 0.00 0.00 0.00 44 1013.0
20260503175019 15 241 11.3 20.9 0.00 0.00 0.00 43 1013.1
20260503174519 15 257 11.3 20.9 0.00 0.00 0.00 44 1013.2
20260503174017 15 223 12.9 22.5 0.00 0.00 0.00 45 1013.2
20260503173516 15 245 11.3 25.7 0.00 0.00 0.00 45 1013.2
20260503173016 15 240 9.7 24.1 0.00 0.00 0.00 46 1013.3
20260503172518 15 240 11.3 22.5 0.00 0.00 0.00 46 1013.4
20260503172017 15 226 12.9 25.7 0.00 0.00 0.00 46 1013.4
20260503171517 15 258 8.0 14.5 0.00 0.00 0.00 47 1013.5
20260503171019 15 247 8.0 22.5 0.00 0.00 0.00 47 1013.6
20260503170520 14 258 8.0 17.7 0.00 0.00 0.00 47 1013.7
20260503150518 11 220 8.0 17.7 0.00 0.00 0.00 49 1014.8
20260503131021 7 207 4.8 9.7 0.00 0.00 0.00 60 1015.9
20260503130521 6 211 4.8 11.3 0.00 0.00 0.00 62 1016.0
20260503110533 1 230 1.6 1.6 0.00 0.00 0.00 85 1016.2
20260503081523 1 0.0 0.0 0.00 0.00 0.00 87 1016.0
20260503081023 2 205 0.0 3.2 0.00 0.00 0.00 87 1016.0
20260503080523 2 202 0.0 3.2 0.00 0.00 0.00 87 1016.0
20260503072523 2 229 0.0 3.2 0.00 0.00 0.00 87 1016.0
20260503072023 2 241 0.0 1.6 0.00 0.00 0.00 87 1016.0
20260503071524 2 264 0.0 1.6 0.00 0.00 0.00 87 1016.0
20260503071024 2 188 1.6 4.8 0.00 0.00 0.00 88 1016.0
20260503070524 2 206 1.6 3.2 0.00 0.00 0.00 88 1016.0
20260503055026 2 235 0.0 1.6 0.00 0.15 0.00 87 1016.2
20260503054525 2 176 0.0 1.6 0.00 0.18 0.00 87 1016.2
20260503054025 2 225 0.0 1.6 0.00 0.18 0.00 86 1016.2
20260503053526 2 242 0.0 1.6 0.00 0.18 0.00 86 1016.2
20260503053026 2 237 0.0 1.6 0.00 0.18 0.00 86 1016.2
20260503052526 2 0.0 0.0 0.00 0.18 0.00 86 1016.2
20260503052026 2 199 0.0 3.2 0.00 0.18 0.00 85 1016.2
20260503051526 2 0.0 0.0 0.00 0.18 0.00 85 1016.3
20260503051026 2 0.0 0.0 0.00 0.18 0.00 84 1016.3
20260503050526 2 179 0.0 1.6 0.00 0.18 0.00 84 1016.3
20260503050026 3 0.0 0.0 0.00 0.18 0.00 83 1016.3
20260503045526 3 0.0 0.0 0.00 0.18 0.00 82 1016.4
20260503045026 3 0.0 0.0 0.00 0.18 0.00 82 1016.4
20260503044528 3 204 0.0 1.6 0.00 0.18 0.00 81 1016.3
20260503044027 3 0.0 0.0 0.00 0.18 0.00 81 1016.3
20260503043527 3 179 0.0 3.2 0.00 0.18 0.00 80 1016.2
20260503043027 4 219 0.0 3.2 0.00 0.18 0.00 79 1016.3
20260503042527 4 206 1.6 4.8 0.00 0.18 0.00 79 1016.3
20260503042027 4 220 0.0 3.2 0.00 0.18 0.00 78 1016.3
20260503041527 4 203 1.6 3.2 0.00 0.18 0.00 78 1016.3
20260503041027 5 205 3.2 4.8 0.00 0.18 0.00 77 1016.3
20260503040528 5 209 1.6 4.8 0.00 0.20 0.00 77 1016.3
20260503040028 5 207 3.2 6.4 0.00 0.20 0.00 76 1016.3
20260503035528 5 208 1.6 4.8 0.00 0.20 0.00 76 1016.3
20260503035028 5 202 1.6 3.2 0.00 0.20 0.00 76 1016.3
20260503034528 5 207 1.6 3.2 0.00 0.20 0.00 75 1016.3
20260503034028 5 202 1.6 3.2 0.00 0.20 0.00 75 1016.3
20260503033528 5 220 1.6 4.8 0.00 0.20 0.00 75 1016.3
20260503033029 5 213 1.6 4.8 0.00 0.20 0.00 75 1016.3
20260503032528 5 226 1.6 4.8 0.00 0.23 0.00 75 1016.3
20260503032028 5 222 1.6 3.2 0.00 0.25 0.00 74 1016.3
20260503031528 5 227 1.6 3.2 0.00 0.25 0.00 74 1016.4
20260503031029 5 191 0.0 1.6 0.00 0.25 0.00 73 1016.4
20260503030528 5 216 0.0 3.2 0.00 0.25 0.00 73 1016.4
20260503030028 5 208 1.6 4.8 0.00 0.28 0.00 72 1016.5
20260503025529 5 242 1.6 4.8 0.00 0.28 0.00 72 1016.4
20260503025029 5 252 0.0 1.6 0.00 0.28 0.00 72 1016.5
20260503024529 5 0.0 0.0 0.00 0.30 0.00 72 1016.5
20260503024030 5 251 0.0 3.2 0.00 0.30 0.00 72 1016.6
20260503023529 5 249 0.0 3.2 0.00 0.33 0.00 71 1016.6
20260503023029 5 250 0.0 3.2 0.00 0.33 0.00 71 1016.6
20260503022529 5 245 0.0 3.2 0.00 0.33 0.00 71 1016.6
20260503022029 5 0.0 0.0 0.00 0.36 0.00 71 1016.6
20260503021529 5 0.0 0.0 0.00 0.38 0.00 72 1016.6
20260503021029 5 4 0.0 1.6 0.00 0.43 0.00 71 1016.6
20260503020529 5 0.0 0.0 0.00 0.43 0.00 71 1016.6
20260503020030 5 0.0 0.0 0.00 0.43 0.00 71 1016.6
20260503015530 5 0.0 0.0 0.00 0.46 0.00 71 1016.5
20260503015030 5 0.0 0.0 0.00 0.46 0.00 71 1016.5
20260503014531 5 0.0 0.0 0.00 0.46 0.00 70 1016.5
20260503014030 5 0.0 0.0 0.00 0.46 0.00 70 1016.5
20260503013530 5 0.0 0.0 0.00 0.46 0.00 70 1016.4
20260503013030 5 0.0 0.0 0.00 0.46 0.00 70 1016.4
20260503012530 5 0.0 0.0 0.00 0.46 0.00 70 1016.4
20260503012030 5 0.0 0.0 0.00 0.46 0.00 69 1016.4
20260503011530 5 0.0 0.0 0.00 0.46 0.00 69 1016.4
20260503011030 5 0.0 0.0 0.00 0.46 0.00 69 1016.4
20260503010531 5 0.0 0.0 0.00 0.46 0.00 68 1016.4
20260503010031 5 0.0 0.0 0.00 0.46 0.00 68 1016.4
20260503005531 5 0.0 0.0 0.00 0.46 0.00 68 1016.3
20260503005016 5 0.0 0.0 0.00 0.46 0.00 67 1016.3
20260503004531 5 0.0 0.0 0.00 0.46 0.00 67 1016.3
20260503004016 6 0.0 0.0 0.00 0.46 0.00 67 1016.3
20260503003531 6 0.0 0.0 0.00 0.46 0.00 67 1016.3
20260503003031 6 0.0 0.0 0.00 0.46 0.00 65 1016.3
20260503002532 6 0.0 0.0 0.00 0.46 0.00 64 1016.2
20260503002031 6 0.0 0.0 0.00 0.46 0.00 61 1016.2
20260503001532 6 271 1.6 3.2 0.00 0.46 0.00 61 1016.2
20260503001032 6 288 0.0 1.6 0.00 0.46 0.00 61 1016.1
20260503000532 6 329 0.0 1.6 0.00 0.46 0.00 61 1016.1
20260503000018 6 311 0.0 3.2 0.00 0.46 0.00 62 1016.1
20260502235532 6 0.0 0.0 0.00 0.46 0.46 60 1016.1
20260502235032 6 289 0.0 3.2 0.00 0.46 0.46 60 1016.1
20260502234518 6 279 1.6 4.8 0.00 0.46 0.46 60 1016.1
20260502234018 6 22 0.0 3.2 0.00 0.46 0.46 61 1016.1
20260502233517 6 352 1.6 3.2 0.00 0.46 0.46 60 1016.1
20260502233018 6 268 0.0 3.2 0.00 0.46 0.46 58 1016.1
20260502232517 6 290 1.6 4.8 0.00 0.46 0.46 59 1016.1
20260502232018 6 352 1.6 4.8 0.00 0.46 0.46 59 1016.1
20260502231518 6 339 1.6 3.2 0.00 0.46 0.46 59 1016.2
20260502231018 6 275 3.2 4.8 0.00 0.46 0.46 57 1016.1
20260502230518 6 296 0.0 3.2 0.00 0.46 0.46 58 1016.2
20260502230033 6 258 4.8 6.4 0.00 0.46 0.46 57 1016.2
20260502225518 7 245 3.2 6.4 0.00 0.46 0.46 58 1016.1
20260502225020 7 241 3.2 8.0 0.00 0.46 0.46 58 1016.1